Regional Weather Roundup
Issued by NWS Charleston, SC

Current Version | Previous Version | Graphics & Text | Print | Product List | Glossary On
Versions: 1 2 3 4 5 6 7 8 9 10 11 12 13 14 15 16 17 18 19 20 21 22 23 24 25 26 27 28 29 30 31 32 33 34 35 36 37 38 39 40 41 42 43 44 45 46 47 48 49 50
000 ASUS42 KCHS 031528 RWRCHS REGIONAL WEATHER ROUNDUP NATIONAL WEATHER SERVICE CHARLESTON SC 1100 AM EDT TUE MAY 03 2016 NOTE: "FAIR" INDICATES FEW OR NO CLOUDS BELOW 12,000 FEET WITH NO SIGNIFICANT WEATHER AND/OR OBSTRUCTIONS TO VISIBILITY. NOT ALL STATIONS ARE QUALITY CONTROLLED. USE DATA WITH CAUTION... ESPECIALLY DEWPOINT OBSERVATIONS. SCZ027-030-031-034>040-042>050-031600- ...SOUTHEAST SOUTH CAROLINA... CITY SKY/WX TMP DP RH WIND PRES REMARKS N CHARLESTON PTSUNNY 81 68 64 W13 29.87S WATERFRONT PRK N/A 79 71 76 W7 29.85R MOUNT PLEASANT NOT AVBL JOHNS ISLAND NOT AVBL PINOPOLIS N/A 79 72 78 W8 29.78S MONCKS CORNER PTSUNNY 77 64 65 CALM 29.87S SUMMERVILLE FAIR 81 70 69 W8 29.88F BEAUFORT MCAS PTSUNNY 80 70 71 W10G18 29.89R BEAUFORT ARPT FAIR 81 70 69 W12G17 29.89R HILTON HEAD IS PTSUNNY 81 70 69 SW14G25 29.91R WALTERBORO NOT AVBL ALLENDALE PTSUNNY 81 68 65 VRB6G13 29.88R ...SOUTHERN MIDLANDS AND PEE DEE... CITY SKY/WX TMP DP RH WIND PRES REMARKS GEORGETOWN NOT AVBL KINGSTREE NOT AVBL ORANGEBURG PTSUNNY 79 68 69 W10 29.87S BARNWELL NOT AVBL AIKEN NOT AVBL MANNING NOT AVBL COLUMBIA MOSUNNY 77 67 71 SW8 29.86S SUMTER PTSUNNY 74 68 79 W13 29.84F FLORENCE LGT RAIN 73 68 84 W7 29.86F MYRTLE BEACH PTSUNNY 72 63 73 W5 29.89F N MYRTLE BEACH LGT RAIN 69 66 90 NE3 29.87F $$ GAZ063-065-086>088-099>101-113>116-118-119-134>141-150-031600- ...SOUTHEAST GEORGIA... CITY SKY/WX TMP DP RH WIND PRES REMARKS SAVANNAH ARPT PTSUNNY 80 70 71 W15G21 29.91R HUNTER AAF MOSUNNY 81 73 78 W15 29.89R FORT STEWART PTSUNNY 78 69 73 W13G18 29.90S STATESBORO MOSUNNY 82 74 75 W10 29.90S SYLVANIA PTSUNNY 80 72 76 W7 29.90S CLAXTON FAIR 80 71 76 SW9G17 29.92S ...CSRA...CENTRAL AND FAR SOUTHEAST GEORGIA... CITY SKY/WX TMP DP RH WIND PRES REMARKS THOMSON MOSUNNY 78 69 73 SW6 29.92S AUGUSTA-BUSH PTSUNNY 77 67 71 W7 29.87S AUGUSTA-DANIEL MOSUNNY 75 65 70 VRB5 29.89S SWAINSBORO PTSUNNY 81 66 61 W8 29.92R VIDALIA PTSUNNY 77 70 78 W8 29.93S EASTMAN CLOUDY 77 70 78 W7 29.95S HAZLEHURST PTSUNNY 77 70 79 SW5 29.92F ALMA PTSUNNY 77 72 84 W8 29.93F WAYCROSS MOSUNNY 80 71 74 W12 29.93F JESUP PTSUNNY 73 72 94 W3 29.93S BAXLEY LGT RAIN 73 73 100 W3 29.93S BRUNSWICK PTSUNNY 86 72 62 W10G21 29.93S HX 92 SAINT SIMONS PTSUNNY 81 71 71 W12 29.92R $$ SCZ027-028-034-036>038-045-046-048>050-GAZ119-141-031600- ...LAKE AND SUPPLEMENTAL COASTAL OBSERVATIONS... STATION/POSITION TIME TEMP WIND PRES WAVE SWELL AIR SEA DIR/SP/G HT/PER HT/PER/DIR (UTC) (F) (DEG/KT/KT) (MB) (FT/S) (FT/S/D) WINYAH BAY 1400 77 260/ 9 1010.0 LAKE MURRAY 1400 70 230/ 8/ 11 1011.2R ACE BASIN NERRS 1400 78 240/ 3 1012.0S FORT PULASKI 1500 78 75 270/ 16/ 19 1012.8R SAPELO ISLAND 1500 76 270/ 12 1013.0S $$ ANZ835-935-AMZ111-154-330-350-352-354-370-450-454-472-031600- ...C-MAN AND BUOY OBSERVATIONS... STATION/POSITION TIME TEMP WIND PRES WAVE SWELL AIR SEA DIR/SP/G HT/PER HT/PER/DIR (UTC) (F) (DEG/KT/KT) (MB) (FT/S) (FT/S/D) BUOY 41004 1450 75 74 240/ 14/ 16 1011.1 4/ 6 2/ 7 BUOY 41008 NOT AVBL FOLLY BEACH CMAN 1500 80 240/ 10/ 14 1011.6F CAPERS NEARSHORE 1508 74 72 240/ 8/ 12 1011.4F FRIPP NEARSHORE 1508 77 75 260/ 10/ 14 1011.6R STATION/POSITION TIME TEMP WIND PRES WAVE SWELL AIR SEA DIR/SP/G HT/PER HT/PER/DIR (UTC) (F) (DEG/KT/KT) (MB) (FT/S) (FT/S/D) 5E ST. MARYS GA 1421 72 N/A 3/ 6 FRYING PAN BUOY 1500 67 72 180/ 16/ 25 1011.5F BUOY 41025 1450 68 72 270/ 17/ 19 1012.0 5/ 6 2/360/11 CAPE LOOKOUT NC 1500 66 290/ 13/ 15 1012.7R BUOY 41002 1450 74 74 180/ 17/ 19 1015.6 4/ 5 2/ 60/ 9 BUOY 41010 1420 78 78 190/ 16/ 19 1014.8R ST AUGUSTINE FL 1500 81 72 240/ 11/ 15 1014.6F $$

USA.gov is the U.S. government's official web portal to all federal, state and local government web resources and services.